Time,TemperatureF,DewpointF,PressureIn,WindDirection,WindDirectionDegrees,WindSpeedMPH,WindSpeedGustMPH,Humidity,HourlyPrecipIn,Conditions,Clouds,dailyrainin,SoftwareType,DateUTC
2013-01-15 00:02:00,34.3,28.2,30.26,NNW,327,0.0,0.0,78,0.00,,,0.00,meteohub,2013-01-15 05:02:00,
2013-01-15 00:03:00,34.3,28.2,30.26,NNW,327,0.0,0.0,78,0.00,,,0.00,meteohub,2013-01-15 05:03:00,
2013-01-15 00:08:00,34.3,28.2,30.29,NW,318,0.0,0.0,78,0.00,,,0.00,meteohub,2013-01-15 05:08:00,
2013-01-15 00:13:00,34.3,28.2,30.29,NW,317,0.0,4.0,78,0.00,,,0.00,meteohub,2013-01-15 05:13:00,
2013-01-15 00:18:00,34.3,28.2,30.29,NW,306,0.0,4.0,78,0.00,,,0.00,meteohub,2013-01-15 05:18:00,
2013-01-15 00:23:00,34.3,28.2,30.29,NW,306,0.0,5.0,78,0.00,,,0.00,meteohub,2013-01-15 05:23:00,
2013-01-15 00:28:00,34.2,28.0,30.29,NW,306,3.0,5.0,78,0.00,,,0.00,meteohub,2013-01-15 05:28:00,
2013-01-15 00:33:00,34.2,28.0,30.29,NW,306,0.0,5.0,78,0.00,,,0.00,meteohub,2013-01-15 05:33:00,
2013-01-15 00:38:00,34.2,28.0,30.29,NW,306,0.0,3.0,78,0.00,,,0.00,meteohub,2013-01-15 05:38:00,
2013-01-15 00:43:00,34.0,27.9,30.29,NW,306,0.0,3.0,78,0.00,,,0.00,meteohub,2013-01-15 05:43:00,
2013-01-15 00:48:00,34.0,27.9,30.29,WSW,242,0.0,3.0,78,0.00,,,0.00,meteohub,2013-01-15 05:48:00,
2013-01-15 00:53:00,34.0,27.9,30.29,WSW,242,0.0,3.0,78,0.00,,,0.00,meteohub,2013-01-15 05:53:00,
2013-01-15 00:58:00,34.0,27.9,30.29,WSW,242,0.0,3.0,78,0.00,,,0.00,meteohub,2013-01-15 05:58:00,
2013-01-15 01:03:00,33.8,27.7,30.29,WSW,242,0.0,0.0,78,0.00,,,0.00,meteohub,2013-01-15 06:03:00,
2013-01-15 01:08:00,33.8,27.7,30.29,WSW,242,0.0,0.0,78,0.00,,,0.00,meteohub,2013-01-15 06:08:00,
2013-01-15 01:13:00,33.6,27.5,30.29,WSW,242,0.0,0.0,78,0.00,,,0.00,meteohub,2013-01-15 06:13:00,
2013-01-15 01:18:00,33.6,27.5,30.29,WSW,242,0.0,0.0,78,0.00,,,0.00,meteohub,2013-01-15 06:18:00,
2013-01-15 01:23:00,33.6,27.5,30.29,WSW,242,0.0,0.0,78,0.00,,,0.00,meteohub,2013-01-15 06:23:00,
2013-01-15 01:28:00,33.6,27.5,30.29,WSW,242,0.0,0.0,78,0.00,,,0.00,meteohub,2013-01-15 06:28:00,
2013-01-15 01:33:00,33.4,27.3,30.29,NNW,340,0.0,0.0,78,0.00,,,0.00,meteohub,2013-01-15 06:33:00,
2013-01-15 01:38:00,33.6,27.5,30.29,NNW,340,0.0,0.0,78,0.00,,,0.00,meteohub,2013-01-15 06:38:00,
2013-01-15 01:43:00,33.4,27.3,30.29,NNW,340,0.0,0.0,78,0.00,,,0.00,meteohub,2013-01-15 06:43:00,
2013-01-15 01:48:00,33.4,27.3,30.29,NNW,340,0.0,0.0,78,0.00,,,0.00,meteohub,2013-01-15 06:48:00,
2013-01-15 01:53:00,33.6,27.5,30.29,NNW,340,0.0,0.0,78,0.00,,,0.00,meteohub,2013-01-15 06:53:00,
2013-01-15 01:58:00,33.6,27.9,30.29,NNW,340,0.0,0.0,79,0.00,,,0.00,meteohub,2013-01-15 06:58:00,
2013-01-15 02:03:00,33.4,27.7,30.29,NNW,340,0.0,0.0,79,0.00,,,0.00,meteohub,2013-01-15 07:03:00,
2013-01-15 02:08:00,33.4,27.3,30.26,NNW,340,0.0,0.0,78,0.00,,,0.00,meteohub,2013-01-15 07:08:00,
2013-01-15 02:13:00,33.4,27.3,30.26,NNW,340,0.0,0.0,78,0.00,,,0.00,meteohub,2013-01-15 07:13:00,
2013-01-15 02:18:00,33.4,27.7,30.26,NNW,340,0.0,0.0,79,0.00,,,0.00,meteohub,2013-01-15 07:18:00,
2013-01-15 02:24:00,33.3,27.5,30.29,NNW,340,0.0,0.0,79,0.00,,,0.00,meteohub,2013-01-15 07:24:00,
2013-01-15 02:29:00,33.3,27.5,30.29,NNW,340,0.0,0.0,79,0.00,,,0.00,meteohub,2013-01-15 07:29:00,
2013-01-15 02:34:00,33.1,27.0,30.29,NNW,340,0.0,0.0,78,0.00,,,0.00,meteohub,2013-01-15 07:34:00,
2013-01-15 02:39:00,33.1,27.0,30.26,NNW,340,0.0,0.0,78,0.00,,,0.00,meteohub,2013-01-15 07:39:00,
2013-01-15 02:44:00,33.1,27.0,30.26,NNW,340,0.0,0.0,78,0.00,,,0.00,meteohub,2013-01-15 07:44:00,
2013-01-15 02:49:00,32.9,26.8,30.26,NNW,340,0.0,0.0,78,0.00,,,0.00,meteohub,2013-01-15 07:49:00,
2013-01-15 02:54:00,32.9,26.8,30.26,NNW,340,0.0,0.0,78,0.00,,,0.00,meteohub,2013-01-15 07:54:00,
2013-01-15 02:59:00,32.9,26.8,30.26,NNW,340,0.0,0.0,78,0.00,,,0.00,meteohub,2013-01-15 07:59:00,
2013-01-15 03:04:00,32.9,26.8,30.26,NNW,340,0.0,0.0,78,0.00,,,0.00,meteohub,2013-01-15 08:04:00,
2013-01-15 03:09:00,32.7,26.6,30.26,NNW,340,0.0,0.0,78,0.00,,,0.00,meteohub,2013-01-15 08:09:00,
2013-01-15 03:14:00,32.7,27.0,30.26,NNW,340,0.0,0.0,79,0.00,,,0.00,meteohub,2013-01-15 08:14:00,
2013-01-15 03:19:00,32.7,26.6,30.26,NNW,340,0.0,0.0,78,0.00,,,0.00,meteohub,2013-01-15 08:19:00,
2013-01-15 03:24:00,32.5,26.4,30.26,NNW,340,0.0,0.0,78,0.00,,,0.00,meteohub,2013-01-15 08:24:00,
2013-01-15 03:29:00,32.5,26.4,30.26,NNW,340,0.0,0.0,78,0.00,,,0.00,meteohub,2013-01-15 08:29:00,
2013-01-15 03:34:00,32.5,26.4,30.26,NNW,340,0.0,0.0,78,0.00,,,0.00,meteohub,2013-01-15 08:34:00,
2013-01-15 03:39:00,32.4,26.2,30.26,NNW,340,0.0,0.0,78,0.00,,,0.00,meteohub,2013-01-15 08:39:00,
2013-01-15 03:44:00,32.4,26.2,30.26,NNW,340,0.0,0.0,78,0.00,,,0.00,meteohub,2013-01-15 08:44:00,
2013-01-15 03:49:00,32.2,26.1,30.26,NNW,340,0.0,0.0,78,0.00,,,0.00,meteohub,2013-01-15 08:49:00,
2013-01-15 03:54:00,32.2,26.1,30.26,NNW,340,0.0,0.0,78,0.00,,,0.00,meteohub,2013-01-15 08:54:00,
2013-01-15 03:59:00,32.0,25.9,30.26,NNW,340,0.0,0.0,78,0.00,,,0.00,meteohub,2013-01-15 08:59:00,
2013-01-15 04:04:00,31.8,25.7,30.26,NNW,340,0.0,0.0,78,0.00,,,0.00,meteohub,2013-01-15 09:04:00,
2013-01-15 04:09:00,31.8,25.7,30.26,NNW,340,0.0,0.0,78,0.00,,,0.00,meteohub,2013-01-15 09:09:00,
2013-01-15 04:14:00,31.6,25.5,30.26,NNW,340,0.0,0.0,78,0.00,,,0.00,meteohub,2013-01-15 09:14:00,
2013-01-15 04:19:00,31.6,25.5,30.26,NNW,340,0.0,0.0,78,0.00,,,0.00,meteohub,2013-01-15 09:19:00,
2013-01-15 04:24:00,31.5,25.3,30.26,NNW,340,0.0,0.0,78,0.00,,,0.00,meteohub,2013-01-15 09:24:00,
2013-01-15 04:29:00,31.5,25.3,30.26,NNW,340,0.0,0.0,78,0.00,,,0.00,meteohub,2013-01-15 09:29:00,
2013-01-15 04:34:00,31.5,25.7,30.26,NNW,340,0.0,0.0,79,0.00,,,0.00,meteohub,2013-01-15 09:34:00,
2013-01-15 04:39:00,31.5,25.7,30.26,NNW,340,0.0,0.0,79,0.00,,,0.00,meteohub,2013-01-15 09:39:00,
2013-01-15 04:44:00,31.3,25.5,30.26,NNW,340,0.0,0.0,79,0.00,,,0.00,meteohub,2013-01-15 09:44:00,
2013-01-15 04:49:00,31.1,25.3,30.26,NNW,340,0.0,0.0,79,0.00,,,0.00,meteohub,2013-01-15 09:49:00,
2013-01-15 04:54:00,31.1,25.3,30.26,NNW,340,0.0,0.0,79,0.00,,,0.00,meteohub,2013-01-15 09:54:00,
2013-01-15 04:59:00,31.1,25.3,30.26,NNW,340,0.0,0.0,79,0.00,,,0.00,meteohub,2013-01-15 09:59:00,
2013-01-15 05:04:00,30.9,25.2,30.26,NNW,340,0.0,0.0,79,0.00,,,0.00,meteohub,2013-01-15 10:04:00,
2013-01-15 05:09:00,30.9,25.2,30.26,NNW,340,0.0,0.0,79,0.00,,,0.00,meteohub,2013-01-15 10:09:00,
2013-01-15 05:14:00,30.9,25.2,30.26,NNW,340,0.0,0.0,79,0.00,,,0.00,meteohub,2013-01-15 10:14:00,
2013-01-15 05:19:00,30.9,25.2,30.26,NNW,340,0.0,0.0,79,0.00,,,0.00,meteohub,2013-01-15 10:19:00,
2013-01-15 05:24:00,30.9,25.2,30.23,NNW,340,0.0,0.0,79,0.00,,,0.00,meteohub,2013-01-15 10:24:00,
2013-01-15 05:29:00,30.7,25.0,30.23,NNW,340,0.0,0.0,79,0.00,,,0.00,meteohub,2013-01-15 10:29:00,
2013-01-15 05:34:00,30.6,24.8,30.23,NNW,340,0.0,0.0,79,0.00,,,0.00,meteohub,2013-01-15 10:34:00,
2013-01-15 05:39:00,30.6,24.8,30.26,NNW,340,0.0,0.0,79,0.00,,,0.00,meteohub,2013-01-15 10:39:00,
2013-01-15 05:44:00,30.6,24.8,30.26,NNW,340,0.0,0.0,79,0.00,,,0.00,meteohub,2013-01-15 10:44:00,
2013-01-15 05:49:00,30.4,24.6,30.26,NNW,340,0.0,0.0,79,0.00,,,0.00,meteohub,2013-01-15 10:49:00,
2013-01-15 05:54:00,30.2,24.4,30.26,NNW,340,0.0,0.0,79,0.00,,,0.00,meteohub,2013-01-15 10:54:00,
2013-01-15 05:59:00,30.2,24.4,30.26,NNW,340,0.0,0.0,79,0.00,,,0.00,meteohub,2013-01-15 10:59:00,
2013-01-15 06:04:00,30.2,24.4,30.26,NNW,340,0.0,0.0,79,0.00,,,0.00,meteohub,2013-01-15 11:04:00,
2013-01-15 06:09:00,30.2,24.4,30.26,NNW,340,0.0,0.0,79,0.00,,,0.00,meteohub,2013-01-15 11:09:00,
2013-01-15 06:14:00,30.2,24.4,30.26,NNW,340,0.0,0.0,79,0.00,,,0.00,meteohub,2013-01-15 11:14:00,
2013-01-15 06:19:00,30.2,24.4,30.26,NNW,340,0.0,0.0,79,0.00,,,0.00,meteohub,2013-01-15 11:19:00,
2013-01-15 06:24:00,30.0,24.3,30.26,NNW,340,0.0,0.0,79,0.00,,,0.00,meteohub,2013-01-15 11:24:00,
2013-01-15 06:29:00,30.0,24.3,30.26,NNW,340,0.0,0.0,79,0.00,,,0.00,meteohub,2013-01-15 11:29:00,
2013-01-15 06:34:00,30.0,24.3,30.26,NNW,340,0.0,0.0,79,0.00,,,0.00,meteohub,2013-01-15 11:34:00,
2013-01-15 06:39:00,29.8,24.1,30.26,NNW,340,0.0,0.0,79,0.00,,,0.00,meteohub,2013-01-15 11:39:00,
2013-01-15 06:44:00,29.8,24.1,30.26,NNW,340,0.0,0.0,79,0.00,,,0.00,meteohub,2013-01-15 11:44:00,
2013-01-15 06:49:00,29.8,24.1,30.26,NNW,340,0.0,0.0,79,0.00,,,0.00,meteohub,2013-01-15 11:49:00,
2013-01-15 06:54:00,30.0,24.3,30.29,NNW,340,0.0,0.0,79,0.00,,,0.00,meteohub,2013-01-15 11:54:00,
2013-01-15 06:59:00,30.0,24.3,30.29,NNW,340,0.0,0.0,79,0.00,,,0.00,meteohub,2013-01-15 11:59:00,
2013-01-15 07:04:00,29.8,24.1,30.29,NNW,340,0.0,0.0,79,0.00,,,0.00,meteohub,2013-01-15 12:04:00,
2013-01-15 07:09:00,29.8,24.1,30.29,NNW,340,0.0,0.0,79,0.00,,,0.00,meteohub,2013-01-15 12:09:00,
2013-01-15 07:14:00,29.8,24.1,30.29,NNW,340,0.0,0.0,79,0.00,,,0.00,meteohub,2013-01-15 12:14:00,
2013-01-15 07:19:00,29.7,23.9,30.29,NNW,340,0.0,0.0,79,0.00,,,0.00,meteohub,2013-01-15 12:19:00,
2013-01-15 07:24:00,29.7,23.9,30.29,NNW,340,0.0,0.0,79,0.00,,,0.00,meteohub,2013-01-15 12:24:00,
2013-01-15 07:29:00,29.7,23.9,30.29,NNW,340,0.0,0.0,79,0.00,,,0.00,meteohub,2013-01-15 12:29:00,
2013-01-15 07:34:00,29.5,23.7,30.29,NNW,338,0.0,0.0,79,0.00,,,0.00,meteohub,2013-01-15 12:34:00,
2013-01-15 07:39:00,29.5,23.7,30.29,NNW,340,0.0,0.0,79,0.00,,,0.00,meteohub,2013-01-15 12:39:00,
2013-01-15 07:44:00,29.7,23.9,30.29,NNW,340,0.0,0.0,79,0.00,,,0.00,meteohub,2013-01-15 12:44:00,
2013-01-15 07:49:00,29.7,24.3,30.29,NNW,340,0.0,0.0,80,0.00,,,0.00,meteohub,2013-01-15 12:49:00,
2013-01-15 07:54:00,29.7,24.3,30.32,NNW,340,0.0,0.0,80,0.00,,,0.00,meteohub,2013-01-15 12:54:00,
2013-01-15 07:59:00,29.7,24.3,30.32,NNW,340,0.0,0.0,80,0.00,,,0.00,meteohub,2013-01-15 12:59:00,
2013-01-15 08:04:00,29.7,23.9,30.32,NNW,340,0.0,0.0,79,0.00,,,0.00,meteohub,2013-01-15 13:04:00,
2013-01-15 08:09:00,29.7,24.3,30.32,NNW,340,0.0,0.0,80,0.00,,,0.00,meteohub,2013-01-15 13:09:00,
2013-01-15 08:14:00,29.7,24.3,30.32,NNW,340,0.0,0.0,80,0.00,,,0.00,meteohub,2013-01-15 13:14:00,
2013-01-15 08:19:00,29.8,24.4,30.32,NNW,340,0.0,0.0,80,0.00,,,0.00,meteohub,2013-01-15 13:19:00,
2013-01-15 08:24:00,29.8,24.4,30.32,NNW,340,0.0,0.0,80,0.00,,,0.00,meteohub,2013-01-15 13:24:00,
2013-01-15 08:29:00,30.0,24.6,30.32,NNW,340,0.0,0.0,80,0.00,,,0.00,meteohub,2013-01-15 13:29:00,
2013-01-15 08:34:00,30.0,24.6,30.32,NNW,340,0.0,0.0,80,0.00,,,0.00,meteohub,2013-01-15 13:34:00,
2013-01-15 08:39:00,30.0,24.6,30.32,NNW,340,0.0,0.0,80,0.00,,,0.00,meteohub,2013-01-15 13:39:00,
2013-01-15 08:44:00,30.0,24.6,30.32,NNW,340,0.0,0.0,80,0.00,,,0.00,meteohub,2013-01-15 13:44:00,
2013-01-15 08:49:00,30.0,24.6,30.32,NNW,340,0.0,0.0,80,0.00,,,0.00,meteohub,2013-01-15 13:49:00,
2013-01-15 08:54:00,30.0,24.6,30.32,NNW,340,0.0,0.0,80,0.00,,,0.00,meteohub,2013-01-15 13:54:00,
2013-01-15 08:59:00,30.2,24.8,30.32,NNW,340,0.0,0.0,80,0.00,,,0.00,meteohub,2013-01-15 13:59:00,
2013-01-15 09:04:00,30.4,25.0,30.32,NNW,340,0.0,0.0,80,0.00,,,0.00,meteohub,2013-01-15 14:04:00,
2013-01-15 09:09:00,30.7,25.3,30.32,NNW,340,0.0,0.0,80,0.00,,,0.00,meteohub,2013-01-15 14:09:00,
2013-01-15 09:14:00,30.9,25.5,30.32,NNW,340,0.0,0.0,80,0.00,,,0.00,meteohub,2013-01-15 14:14:00,
2013-01-15 09:19:00,31.1,25.7,30.32,NNW,340,0.0,0.0,80,0.00,,,0.00,meteohub,2013-01-15 14:19:00,
2013-01-15 09:24:00,31.3,25.9,30.32,NW,324,4.0,0.0,80,0.00,,,0.00,meteohub,2013-01-15 14:24:00,
2013-01-15 09:29:00,31.6,26.2,30.32,WNW,293,3.0,0.0,80,0.00,,,0.00,meteohub,2013-01-15 14:29:00,
2013-01-15 09:34:00,31.6,26.2,30.32,NW,309,4.0,6.0,80,0.00,,,0.00,meteohub,2013-01-15 14:34:00,
2013-01-15 09:39:00,31.8,26.1,30.32,NNW,330,5.0,6.0,79,0.00,,,0.00,meteohub,2013-01-15 14:39:00,
2013-01-15 09:44:00,31.8,26.1,30.32,NW,317,4.0,7.0,79,0.00,,,0.00,meteohub,2013-01-15 14:44:00,
2013-01-15 09:49:00,31.8,26.1,30.32,WNW,297,0.0,7.0,79,0.00,,,0.00,meteohub,2013-01-15 14:49:00,
2013-01-15 09:54:00,32.0,25.9,30.32,NW,313,0.0,7.0,78,0.00,,,0.00,meteohub,2013-01-15 14:54:00,
2013-01-15 09:59:00,32.2,26.1,30.32,NNW,333,3.0,5.0,78,0.00,,,0.00,meteohub,2013-01-15 14:59:00,
2013-01-15 10:04:00,32.2,26.1,30.32,NW,311,4.0,5.0,78,0.00,,,0.00,meteohub,2013-01-15 15:04:00,
2013-01-15 10:09:00,32.2,25.7,30.32,NW,310,4.0,5.0,77,0.00,,,0.00,meteohub,2013-01-15 15:09:00,
2013-01-15 10:14:00,32.2,25.7,30.32,NW,324,5.0,6.0,77,0.00,,,0.00,meteohub,2013-01-15 15:14:00,
2013-01-15 10:19:00,32.2,25.5,30.32,WNW,303,5.0,6.0,76,0.00,,,0.00,meteohub,2013-01-15 15:19:00,
2013-01-15 10:24:00,32.2,25.5,30.32,North,0,0.0,8.0,76,0.00,,,0.00,meteohub,2013-01-15 15:24:00,
2013-01-15 10:29:00,32.2,25.5,30.32,NW,320,3.0,8.0,76,0.00,,,0.00,meteohub,2013-01-15 15:29:00,
2013-01-15 10:34:00,32.2,25.5,30.32,NW,322,4.0,8.0,76,0.00,,,0.00,meteohub,2013-01-15 15:34:00,
2013-01-15 10:39:00,32.2,25.2,30.32,SSE,168,0.0,8.0,75,0.00,,,0.00,meteohub,2013-01-15 15:39:00,
2013-01-15 10:44:00,32.2,25.2,30.32,SSW,198,0.0,8.0,75,0.00,,,0.00,meteohub,2013-01-15 15:44:00,
2013-01-15 10:49:00,32.2,25.2,30.32,SSW,198,0.0,8.0,75,0.00,,,0.00,meteohub,2013-01-15 15:49:00,
2013-01-15 10:54:00,32.2,25.2,30.32,SW,235,0.0,5.0,75,0.00,,,0.00,meteohub,2013-01-15 15:54:00,
2013-01-15 10:59:00,32.2,25.2,30.32,SW,235,0.0,0.0,75,0.00,,,0.00,meteohub,2013-01-15 15:59:00,
2013-01-15 11:04:00,32.2,25.2,30.32,SW,235,0.0,0.0,75,0.00,,,0.00,meteohub,2013-01-15 16:04:00,
2013-01-15 11:09:00,32.2,25.2,30.29,NNW,333,0.0,0.0,75,0.00,,,0.00,meteohub,2013-01-15 16:09:00,
2013-01-15 11:14:00,32.4,25.3,30.29,NNW,333,0.0,0.0,75,0.00,,,0.00,meteohub,2013-01-15 16:14:00,
2013-01-15 11:19:00,32.5,25.5,30.29,NNW,333,0.0,0.0,75,0.00,,,0.00,meteohub,2013-01-15 16:19:00,
2013-01-15 11:24:00,32.5,25.5,30.29,NNW,333,3.0,0.0,75,0.00,,,0.00,meteohub,2013-01-15 16:24:00,
2013-01-15 11:29:00,32.5,25.5,30.29,NNW,333,3.0,5.0,75,0.00,,,0.00,meteohub,2013-01-15 16:29:00,
2013-01-15 11:34:00,32.5,25.5,30.29,NNW,333,0.0,5.0,75,0.00,,,0.00,meteohub,2013-01-15 16:34:00,
2013-01-15 11:39:00,32.5,25.5,30.29,NW,312,5.0,5.0,75,0.00,,,0.00,meteohub,2013-01-15 16:39:00,
2013-01-15 11:44:00,32.5,25.5,30.29,NNW,331,6.0,8.0,75,0.00,,,0.00,meteohub,2013-01-15 16:44:00,
2013-01-15 11:49:00,32.5,25.2,30.29,NW,321,6.0,8.0,74,0.00,,,0.00,meteohub,2013-01-15 16:49:00,
2013-01-15 11:54:00,32.5,25.2,30.29,NW,315,0.0,8.0,74,0.00,,,0.00,meteohub,2013-01-15 16:54:00,
2013-01-15 11:59:00,32.5,24.8,30.29,NW,312,6.0,8.0,73,0.00,,,0.00,meteohub,2013-01-15 16:59:00,
2013-01-15 12:04:00,32.7,25.0,30.29,NNW,328,6.0,8.0,73,0.00,,,0.00,meteohub,2013-01-15 17:04:00,
2013-01-15 12:09:00,32.7,25.0,30.29,NW,307,3.0,8.0,73,0.00,,,0.00,meteohub,2013-01-15 17:09:00,
2013-01-15 12:14:00,32.7,25.0,30.29,NNW,339,0.0,8.0,73,0.00,,,0.00,meteohub,2013-01-15 17:14:00,
2013-01-15 12:19:00,32.7,24.6,30.29,NNW,331,4.0,6.0,72,0.00,,,0.00,meteohub,2013-01-15 17:19:00,
2013-01-15 12:24:00,32.7,24.6,30.29,NNW,331,4.0,6.0,72,0.00,,,0.00,meteohub,2013-01-15 17:24:00,
2013-01-15 12:29:00,32.9,24.8,30.29,NW,323,5.0,6.0,72,0.00,,,0.00,meteohub,2013-01-15 17:29:00,
2013-01-15 12:34:00,33.1,25.0,30.29,NNW,331,4.0,6.0,72,0.00,,,0.00,meteohub,2013-01-15 17:34:00,
2013-01-15 12:39:00,33.1,25.0,30.29,NNW,332,5.0,8.0,72,0.00,,,0.00,meteohub,2013-01-15 17:39:00,
2013-01-15 12:44:00,33.1,24.6,30.29,West,274,0.0,8.0,71,0.00,,,0.00,meteohub,2013-01-15 17:44:00,
2013-01-15 12:50:00,33.3,24.8,30.29,West,265,4.0,8.0,71,0.00,,,0.00,meteohub,2013-01-15 17:50:00,
2013-01-15 12:55:00,33.3,24.8,30.26,NNW,343,0.0,8.0,71,0.00,,,0.00,meteohub,2013-01-15 17:55:00,
2013-01-15 13:00:00,33.3,24.8,30.26,NNW,343,0.0,6.0,71,0.00,,,0.00,meteohub,2013-01-15 18:00:00,
2013-01-15 13:05:00,33.3,24.8,30.26,NNW,343,0.0,4.0,71,0.00,,,0.00,meteohub,2013-01-15 18:05:00,
2013-01-15 13:10:00,33.1,24.6,30.26,NNW,330,5.0,5.0,71,0.00,,,0.00,meteohub,2013-01-15 18:10:00,
2013-01-15 13:15:00,33.1,24.6,30.26,NW,314,0.0,6.0,71,0.00,,,0.00,meteohub,2013-01-15 18:15:00,
2013-01-15 13:20:00,33.1,24.6,30.26,NNW,336,4.0,6.0,71,0.00,,,0.00,meteohub,2013-01-15 18:20:00,
2013-01-15 13:25:00,33.1,24.6,30.29,NNE,31,5.0,6.0,71,0.00,,,0.00,meteohub,2013-01-15 18:25:00,
2013-01-15 13:30:00,33.1,24.6,30.29,NE,47,0.0,5.0,71,0.00,,,0.00,meteohub,2013-01-15 18:30:00,
2013-01-15 13:35:00,33.1,24.6,30.29,NNW,331,3.0,5.0,71,0.00,,,0.00,meteohub,2013-01-15 18:35:00,
2013-01-15 13:40:00,33.1,24.6,30.26,North,353,0.0,5.0,71,0.00,,,0.00,meteohub,2013-01-15 18:40:00,
2013-01-15 13:45:00,32.9,24.6,30.26,NNW,329,5.0,5.0,71,0.00,,,0.00,meteohub,2013-01-15 18:45:00,
2013-01-15 13:50:00,32.9,24.6,30.26,WNW,302,3.0,5.0,71,0.00,,,0.00,meteohub,2013-01-15 18:50:00,
2013-01-15 13:55:00,32.9,24.6,30.26,NNW,339,3.0,5.0,71,0.00,,,0.00,meteohub,2013-01-15 18:55:00,
2013-01-15 14:00:00,32.9,24.6,30.26,NW,326,0.0,5.0,71,0.00,,,0.00,meteohub,2013-01-15 19:00:00,
2013-01-15 14:05:00,32.9,24.6,30.26,NNW,335,0.0,5.0,71,0.00,,,0.00,meteohub,2013-01-15 19:05:00,
2013-01-15 14:10:00,32.7,24.4,30.29,NE,41,0.0,5.0,71,0.00,,,0.00,meteohub,2013-01-15 19:10:00,
2013-01-15 14:15:00,32.7,24.1,30.29,WSW,252,0.0,5.0,70,0.00,,,0.00,meteohub,2013-01-15 19:15:00,
2013-01-15 14:20:00,32.7,24.1,30.29,NNW,335,0.0,6.0,70,0.00,,,0.00,meteohub,2013-01-15 19:20:00,
2013-01-15 14:25:00,32.7,24.1,30.26,NW,321,4.0,6.0,70,0.00,,,0.00,meteohub,2013-01-15 19:25:00,
2013-01-15 14:30:00,32.7,24.1,30.26,WNW,300,5.0,6.0,70,0.00,,,0.00,meteohub,2013-01-15 19:30:00,
2013-01-15 14:35:00,32.5,23.9,30.26,NNW,328,0.0,5.0,70,0.00,,,0.00,meteohub,2013-01-15 19:35:00,
2013-01-15 14:40:00,32.5,23.9,30.26,NW,310,0.0,5.0,70,0.00,,,0.00,meteohub,2013-01-15 19:40:00,
2013-01-15 14:45:00,32.7,24.1,30.26,NW,304,4.0,6.0,70,0.00,,,0.00,meteohub,2013-01-15 19:45:00,
2013-01-15 14:50:00,32.7,24.1,30.26,NW,325,0.0,6.0,70,0.00,,,0.00,meteohub,2013-01-15 19:50:00,
2013-01-15 14:55:00,32.5,23.9,30.26,NNE,24,0.0,6.0,70,0.00,,,0.00,meteohub,2013-01-15 19:55:00,
2013-01-15 15:00:00,32.5,23.5,30.26,WSW,237,0.0,6.0,69,0.00,,,0.00,meteohub,2013-01-15 20:00:00,
2013-01-15 15:05:00,32.5,23.9,30.26,NW,322,0.0,4.0,70,0.00,,,0.00,meteohub,2013-01-15 20:05:00,
2013-01-15 15:10:00,32.5,23.9,30.26,NW,305,0.0,4.0,70,0.00,,,0.00,meteohub,2013-01-15 20:10:00,
2013-01-15 15:15:00,32.5,23.9,30.26,SSW,204,0.0,4.0,70,0.00,,,0.00,meteohub,2013-01-15 20:15:00,
2013-01-15 15:20:00,32.5,23.9,30.26,SSW,204,0.0,4.0,70,0.00,,,0.00,meteohub,2013-01-15 20:20:00,
2013-01-15 15:25:00,32.5,23.9,30.26,NW,325,0.0,2.0,70,0.00,,,0.00,meteohub,2013-01-15 20:25:00,
2013-01-15 15:30:00,32.5,23.9,30.26,NW,325,0.0,0.0,70,0.00,,,0.00,meteohub,2013-01-15 20:30:00,
2013-01-15 15:35:00,32.5,24.3,30.26,NW,325,0.0,0.0,71,0.00,,,0.00,meteohub,2013-01-15 20:35:00,
2013-01-15 15:40:00,32.4,24.1,30.26,NW,325,0.0,0.0,71,0.00,,,0.00,meteohub,2013-01-15 20:40:00,
2013-01-15 15:45:00,32.4,24.1,30.26,NW,322,3.0,0.0,71,0.00,,,0.00,meteohub,2013-01-15 20:45:00,
2013-01-15 15:50:00,32.4,24.1,30.26,NW,321,0.0,6.0,71,0.00,,,0.00,meteohub,2013-01-15 20:50:00,
2013-01-15 15:55:00,32.2,23.9,30.26,NW,326,0.0,6.0,71,0.00,,,0.00,meteohub,2013-01-15 20:55:00,
2013-01-15 16:00:00,32.2,23.9,30.26,NW,318,0.0,6.0,71,0.00,,,0.00,meteohub,2013-01-15 21:00:00,
2013-01-15 16:05:00,32.2,23.9,30.26,NW,318,0.0,4.0,71,0.00,,,0.00,meteohub,2013-01-15 21:05:00,
2013-01-15 16:10:00,32.2,23.9,30.26,NW,318,0.0,4.0,71,0.00,,,0.00,meteohub,2013-01-15 21:10:00,
2013-01-15 16:15:00,32.2,23.9,30.26,NW,318,0.0,0.0,71,0.00,,,0.00,meteohub,2013-01-15 21:15:00,
2013-01-15 16:20:00,32.2,23.9,30.26,NW,318,0.0,0.0,71,0.00,,,0.00,meteohub,2013-01-15 21:20:00,
2013-01-15 16:25:00,32.2,23.9,30.26,NW,318,0.0,0.0,71,0.00,,,0.00,meteohub,2013-01-15 21:25:00,
2013-01-15 16:30:00,32.0,23.7,30.26,WNW,300,3.0,0.0,71,0.00,,,0.00,meteohub,2013-01-15 21:30:00,
2013-01-15 16:35:00,32.0,23.7,30.26,WNW,300,0.0,4.0,71,0.00,,,0.00,meteohub,2013-01-15 21:35:00,
2013-01-15 16:40:00,32.0,23.7,30.26,WNW,300,0.0,4.0,71,0.00,,,0.00,meteohub,2013-01-15 21:40:00,
2013-01-15 16:45:00,31.8,23.5,30.26,WNW,300,0.0,4.0,71,0.00,,,0.00,meteohub,2013-01-15 21:45:00,
2013-01-15 16:50:00,31.8,23.5,30.26,NW,324,0.0,3.0,71,0.00,,,0.00,meteohub,2013-01-15 21:50:00,
2013-01-15 16:55:00,31.8,23.9,30.29,NW,324,0.0,3.0,72,0.00,,,0.00,meteohub,2013-01-15 21:55:00,
2013-01-15 17:00:00,31.6,23.7,30.29,NW,324,0.0,3.0,72,0.00,,,0.00,meteohub,2013-01-15 22:00:00,
2013-01-15 17:05:00,31.6,23.7,30.29,NW,324,0.0,0.0,72,0.00,,,0.00,meteohub,2013-01-15 22:05:00,
2013-01-15 17:10:00,31.6,23.7,30.29,West,274,0.0,0.0,72,0.00,,,0.00,meteohub,2013-01-15 22:10:00,
2013-01-15 17:15:00,31.6,23.7,30.29,West,274,0.0,4.0,72,0.00,,,0.00,meteohub,2013-01-15 22:15:00,
2013-01-15 17:20:00,31.5,23.9,30.26,NNW,331,0.0,4.0,73,0.00,,,0.00,meteohub,2013-01-15 22:20:00,
2013-01-15 17:25:00,31.5,23.9,30.26,NNW,331,0.0,4.0,73,0.00,,,0.00,meteohub,2013-01-15 22:25:00,
2013-01-15 17:30:00,31.5,23.9,30.26,NNW,331,0.0,3.0,73,0.00,,,0.00,meteohub,2013-01-15 22:30:00,
2013-01-15 17:35:00,31.5,23.9,30.26,NNW,331,0.0,3.0,73,0.00,,,0.00,meteohub,2013-01-15 22:35:00,
2013-01-15 17:40:00,31.5,23.9,30.26,NNW,331,0.0,0.0,73,0.00,,,0.00,meteohub,2013-01-15 22:40:00,
2013-01-15 17:45:00,31.3,23.7,30.26,WNW,301,0.0,0.0,73,0.00,,,0.00,meteohub,2013-01-15 22:45:00,
2013-01-15 17:50:00,31.3,23.7,30.26,WNW,284,0.0,0.0,73,0.00,,,0.00,meteohub,2013-01-15 22:50:00,
2013-01-15 17:55:00,31.3,23.7,30.26,WNW,284,0.0,4.0,73,0.00,,,0.00,meteohub,2013-01-15 22:55:00,
2013-01-15 18:00:00,31.3,23.9,30.26,WNW,284,0.0,4.0,74,0.00,,,0.00,meteohub,2013-01-15 23:00:00,
2013-01-15 18:05:00,31.3,23.9,30.29,WNW,284,0.0,0.0,74,0.00,,,0.00,meteohub,2013-01-15 23:05:00,
2013-01-15 18:10:00,31.3,23.9,30.29,WNW,284,0.0,0.0,74,0.00,,,0.00,meteohub,2013-01-15 23:10:00,
2013-01-15 18:15:00,31.1,23.7,30.29,WNW,284,0.0,0.0,74,0.00,,,0.00,meteohub,2013-01-15 23:15:00,
2013-01-15 18:20:00,31.1,23.7,30.29,WNW,284,0.0,0.0,74,0.00,,,0.00,meteohub,2013-01-15 23:20:00,
2013-01-15 18:25:00,31.1,23.7,30.29,WNW,284,0.0,0.0,74,0.00,,,0.00,meteohub,2013-01-15 23:25:00,
2013-01-15 18:30:00,31.1,23.7,30.29,WNW,284,0.0,0.0,74,0.00,,,0.00,meteohub,2013-01-15 23:30:00,
2013-01-15 18:35:00,30.9,23.5,30.29,WNW,284,0.0,0.0,74,0.00,,,0.00,meteohub,2013-01-15 23:35:00,
2013-01-15 18:40:00,30.9,23.5,30.29,WNW,284,0.0,0.0,74,0.00,,,0.00,meteohub,2013-01-15 23:40:00,
2013-01-15 18:45:00,30.7,23.4,30.29,WNW,284,0.0,0.0,74,0.00,,,0.00,meteohub,2013-01-15 23:45:00,
2013-01-15 18:50:00,30.7,23.2,30.29,WNW,284,0.0,0.0,73,0.00,,,0.00,meteohub,2013-01-15 23:50:00,
2013-01-15 18:55:00,30.6,23.0,30.26,WNW,284,0.0,0.0,73,0.00,,,0.00,meteohub,2013-01-15 23:55:00,
2013-01-15 19:00:00,30.6,23.0,30.26,WNW,284,0.0,0.0,73,0.00,,,0.00,meteohub,2013-01-16 00:00:00,
2013-01-15 19:05:00,30.6,23.0,30.26,WNW,284,0.0,0.0,73,0.00,,,0.00,meteohub,2013-01-16 00:05:00,
2013-01-15 19:10:00,30.4,22.8,30.26,WNW,284,0.0,0.0,73,0.00,,,0.00,meteohub,2013-01-16 00:10:00,
2013-01-15 19:15:00,30.2,23.0,30.26,WNW,284,0.0,0.0,74,0.00,,,0.00,meteohub,2013-01-16 00:15:00,
2013-01-15 19:20:00,30.4,22.8,30.26,WNW,284,0.0,0.0,73,0.00,,,0.00,meteohub,2013-01-16 00:20:00,
2013-01-15 19:25:00,30.4,23.2,30.26,WNW,284,0.0,0.0,74,0.00,,,0.00,meteohub,2013-01-16 00:25:00,
2013-01-15 19:30:00,30.4,23.2,30.26,WNW,284,0.0,0.0,74,0.00,,,0.00,meteohub,2013-01-16 00:30:00,
2013-01-15 19:35:00,30.2,23.0,30.26,WNW,284,0.0,0.0,74,0.00,,,0.00,meteohub,2013-01-16 00:35:00,
2013-01-15 19:40:00,30.2,23.0,30.26,WNW,284,0.0,0.0,74,0.00,,,0.00,meteohub,2013-01-16 00:40:00,
2013-01-15 19:45:00,30.2,23.2,30.26,WNW,284,0.0,0.0,75,0.00,,,0.00,meteohub,2013-01-16 00:45:00,
2013-01-15 19:50:00,30.2,23.2,30.26,WNW,284,0.0,0.0,75,0.00,,,0.00,meteohub,2013-01-16 00:50:00,
2013-01-15 19:55:00,30.0,23.0,30.26,WNW,284,0.0,0.0,75,0.00,,,0.00,meteohub,2013-01-16 00:55:00,
2013-01-15 20:00:00,30.0,23.0,30.26,WNW,284,0.0,0.0,75,0.00,,,0.00,meteohub,2013-01-16 01:00:00,
2013-01-15 20:05:00,30.0,22.8,30.26,WNW,284,0.0,0.0,74,0.00,,,0.00,meteohub,2013-01-16 01:05:00,
2013-01-15 20:10:00,30.0,23.0,30.26,WNW,284,0.0,0.0,75,0.00,,,0.00,meteohub,2013-01-16 01:10:00,
2013-01-15 20:15:00,30.0,23.0,30.26,WNW,284,0.0,0.0,75,0.00,,,0.00,meteohub,2013-01-16 01:15:00,
2013-01-15 20:20:00,29.8,22.8,30.26,WNW,284,0.0,0.0,75,0.00,,,0.00,meteohub,2013-01-16 01:20:00,
2013-01-15 20:25:00,29.8,22.8,30.26,WNW,284,0.0,0.0,75,0.00,,,0.00,meteohub,2013-01-16 01:25:00,
2013-01-15 20:30:00,29.7,22.6,30.26,WNW,284,0.0,0.0,75,0.00,,,0.00,meteohub,2013-01-16 01:30:00,
2013-01-15 20:35:00,29.7,22.5,30.26,WNW,284,0.0,0.0,74,0.00,,,0.00,meteohub,2013-01-16 01:35:00,
2013-01-15 20:40:00,29.7,22.6,30.26,WNW,284,0.0,0.0,75,0.00,,,0.00,meteohub,2013-01-16 01:40:00,
2013-01-15 20:45:00,29.7,22.6,30.26,WNW,284,0.0,0.0,75,0.00,,,0.00,meteohub,2013-01-16 01:45:00,
2013-01-15 20:50:00,29.7,22.6,30.26,WNW,284,0.0,0.0,75,0.00,,,0.00,meteohub,2013-01-16 01:50:00,
2013-01-15 20:55:00,29.5,22.5,30.26,WNW,284,0.0,0.0,75,0.00,,,0.00,meteohub,2013-01-16 01:55:00,
2013-01-15 21:00:00,29.5,22.5,30.26,WNW,284,0.0,0.0,75,0.00,,,0.00,meteohub,2013-01-16 02:00:00,
2013-01-15 21:05:00,29.5,22.5,30.26,WNW,284,0.0,0.0,75,0.00,,,0.00,meteohub,2013-01-16 02:05:00,
2013-01-15 21:10:00,29.5,22.5,30.26,WNW,284,0.0,0.0,75,0.00,,,0.00,meteohub,2013-01-16 02:10:00,
2013-01-15 21:15:00,29.5,22.5,30.26,WNW,284,0.0,0.0,75,0.00,,,0.00,meteohub,2013-01-16 02:15:00,
2013-01-15 21:20:00,29.5,22.5,30.26,West,281,0.0,0.0,75,0.00,,,0.00,meteohub,2013-01-16 02:20:00,
2013-01-15 21:25:00,29.5,22.5,30.26,WNW,284,0.0,0.0,75,0.00,,,0.00,meteohub,2013-01-16 02:25:00,
2013-01-15 21:30:00,29.5,22.5,30.26,WNW,284,0.0,0.0,75,0.00,,,0.00,meteohub,2013-01-16 02:30:00,
2013-01-15 21:35:00,29.5,22.5,30.23,WNW,284,0.0,0.0,75,0.00,,,0.00,meteohub,2013-01-16 02:35:00,
2013-01-15 21:40:00,29.3,22.3,30.23,WNW,284,0.0,0.0,75,0.00,,,0.00,meteohub,2013-01-16 02:40:00,
2013-01-15 21:45:00,29.3,22.3,30.23,WNW,284,0.0,0.0,75,0.00,,,0.00,meteohub,2013-01-16 02:45:00,
2013-01-15 21:50:00,29.3,22.3,30.23,WNW,284,0.0,0.0,75,0.00,,,0.00,meteohub,2013-01-16 02:50:00,
2013-01-15 21:55:00,29.3,22.6,30.23,WNW,284,0.0,0.0,76,0.00,,,0.00,meteohub,2013-01-16 02:55:00,
2013-01-15 22:00:00,29.3,22.6,30.23,WNW,284,0.0,0.0,76,0.00,,,0.00,meteohub,2013-01-16 03:00:00,
2013-01-15 22:05:00,29.3,22.6,30.23,WNW,284,0.0,0.0,76,0.00,,,0.00,meteohub,2013-01-16 03:05:00,
2013-01-15 22:10:00,29.3,22.6,30.23,WNW,284,0.0,0.0,76,0.00,,,0.00,meteohub,2013-01-16 03:10:00,
2013-01-15 22:15:00,29.3,22.6,30.23,WNW,284,0.0,0.0,76,0.00,,,0.00,meteohub,2013-01-16 03:15:00,
2013-01-15 22:20:00,29.1,22.3,30.23,WNW,284,0.0,0.0,75,0.00,,,0.00,meteohub,2013-01-16 03:20:00,
2013-01-15 22:25:00,29.1,22.3,30.23,WNW,284,0.0,0.0,75,0.00,,,0.00,meteohub,2013-01-16 03:25:00,
2013-01-15 22:30:00,29.1,22.3,30.23,WNW,284,0.0,0.0,75,0.00,,,0.00,meteohub,2013-01-16 03:30:00,
2013-01-15 22:35:00,29.1,22.3,30.23,WNW,284,0.0,0.0,75,0.00,,,0.00,meteohub,2013-01-16 03:35:00,
2013-01-15 22:40:00,29.1,22.5,30.23,WNW,284,0.0,0.0,76,0.00,,,0.00,meteohub,2013-01-16 03:40:00,
2013-01-15 22:45:00,29.1,22.5,30.23,WNW,284,0.0,0.0,76,0.00,,,0.00,meteohub,2013-01-16 03:45:00,
2013-01-15 22:50:00,29.1,22.5,30.23,WNW,284,0.0,0.0,76,0.00,,,0.00,meteohub,2013-01-16 03:50:00,
2013-01-15 22:55:00,29.1,22.5,30.23,WNW,284,0.0,0.0,76,0.00,,,0.00,meteohub,2013-01-16 03:55:00,
2013-01-15 23:00:00,29.1,22.5,30.23,WNW,284,0.0,0.0,76,0.00,,,0.00,meteohub,2013-01-16 04:00:00,
2013-01-15 23:05:00,29.1,22.5,30.23,WNW,284,0.0,0.0,76,0.00,,,0.00,meteohub,2013-01-16 04:05:00,
2013-01-15 23:10:00,29.1,22.5,30.23,WNW,284,0.0,0.0,76,0.00,,,0.00,meteohub,2013-01-16 04:10:00,
2013-01-15 23:15:00,29.3,22.6,30.23,WNW,284,0.0,0.0,76,0.00,,,0.00,meteohub,2013-01-16 04:15:00,
2013-01-15 23:20:00,29.3,23.0,30.23,WNW,284,0.0,0.0,77,0.00,,,0.00,meteohub,2013-01-16 04:20:00,
2013-01-15 23:25:00,29.1,22.8,30.23,WNW,284,0.0,0.0,77,0.00,,,0.00,meteohub,2013-01-16 04:25:00,
2013-01-15 23:30:00,29.3,23.0,30.23,WNW,284,0.0,0.0,77,0.00,,,0.00,meteohub,2013-01-16 04:30:00,
2013-01-15 23:35:00,29.1,22.8,30.23,WNW,284,0.0,0.0,77,0.00,,,0.00,meteohub,2013-01-16 04:35:00,
2013-01-15 23:40:00,29.1,22.8,30.26,WNW,284,0.0,0.0,77,0.00,,,0.00,meteohub,2013-01-16 04:40:00,
2013-01-15 23:45:00,29.1,22.8,30.26,WNW,284,0.0,0.0,77,0.00,,,0.00,meteohub,2013-01-16 04:45:00,
2013-01-15 23:50:00,29.1,22.8,30.23,WNW,284,0.0,0.0,77,0.00,,,0.00,meteohub,2013-01-16 04:50:00,
2013-01-15 23:55:00,29.1,22.8,30.23,WNW,284,0.0,0.0,77,0.00,,,0.00,meteohub,2013-01-16 04:55:00,